Time,TemperatureF,DewpointF,PressureIn,WindDirection,WindDirectionDegrees,WindSpeedMPH,WindSpeedGustMPH,Humidity,HourlyPrecipIn,Conditions,Clouds,dailyrainin,SoftwareType,DateUTC
2013-04-17 00:00:00,58.3,52.9,30.03,South,189,1.0,13.0,82,0.00,,,0.00,WUHU216DAVISVP2,2013-04-17 04:00:00,
2013-04-17 00:05:00,58.2,52.8,30.04,SSW,207,1.0,10.0,82,0.00,,,0.00,WUHU216DAVISVP2,2013-04-17 04:05:00,
2013-04-17 00:10:00,58.2,52.8,30.04,SSW,210,2.5,10.0,82,0.00,,,0.00,WUHU216DAVISVP2,2013-04-17 04:10:00,
2013-04-17 00:15:00,58.4,53.0,30.04,SSW,205,5.9,10.0,82,0.00,,,0.00,WUHU216DAVISVP2,2013-04-17 04:15:00,
2013-04-17 00:20:00,58.4,53.0,30.03,South,190,5.0,10.0,82,0.00,,,0.00,WUHU216DAVISVP2,2013-04-17 04:20:00,
2013-04-17 00:25:00,58.5,53.1,30.04,SW,217,2.7,11.0,82,0.00,,,0.00,WUHU216DAVISVP2,2013-04-17 04:25:00,
2013-04-17 00:30:00,58.6,53.2,30.04,SSW,212,7.0,11.0,82,0.00,,,0.00,WUHU216DAVISVP2,2013-04-17 04:30:00,
2013-04-17 00:35:00,58.7,53.3,30.04,SW,234,6.0,11.0,82,0.00,,,0.00,WUHU216DAVISVP2,2013-04-17 04:35:00,
2013-04-17 00:40:00,58.7,53.3,30.04,WSW,237,4.4,13.0,82,0.00,,,0.00,WUHU216DAVISVP2,2013-04-17 04:40:00,
2013-04-17 00:45:00,58.7,53.3,30.04,SW,220,3.0,13.0,82,0.00,,,0.00,WUHU216DAVISVP2,2013-04-17 04:45:00,
2013-04-17 00:50:00,58.8,53.4,30.04,SSW,209,7.0,13.0,82,0.00,,,0.00,WUHU216DAVISVP2,2013-04-17 04:50:00,
2013-04-17 00:55:00,58.7,53.3,30.03,SW,214,4.6,13.0,82,0.00,,,0.00,WUHU216DAVISVP2,2013-04-17 04:55:00,
2013-04-17 01:00:00,58.7,53.3,30.03,WSW,247,3.0,12.0,82,0.00,,,0.00,WUHU216DAVISVP2,2013-04-17 05:00:00,
2013-04-17 01:05:00,58.5,53.1,30.03,SW,214,5.7,12.0,82,0.00,,,0.00,WUHU216DAVISVP2,2013-04-17 05:05:00,
2013-04-17 01:10:00,58.5,53.4,30.04,SW,221,4.0,9.0,83,0.00,,,0.00,WUHU216DAVISVP2,2013-04-17 05:10:00,
2013-04-17 01:15:00,58.5,53.4,30.04,SSW,199,6.5,12.0,83,0.00,,,0.00,WUHU216DAVISVP2,2013-04-17 05:15:00,
2013-04-17 01:20:00,58.4,53.3,30.05,West,268,11.0,12.0,83,0.00,,,0.00,WUHU216DAVISVP2,2013-04-17 05:20:00,
2013-04-17 01:25:00,58.5,53.4,30.04,WSW,249,4.2,12.0,83,0.00,,,0.00,WUHU216DAVISVP2,2013-04-17 05:25:00,
2013-04-17 01:30:00,58.4,53.3,30.04,SW,219,4.5,12.0,83,0.00,,,0.00,WUHU216DAVISVP2,2013-04-17 05:30:00,
2013-04-17 01:35:00,58.2,53.1,30.04,WSW,257,8.5,12.0,83,0.00,,,0.00,WUHU216DAVISVP2,2013-04-17 05:35:00,
2013-04-17 01:40:00,58.2,53.1,30.04,SW,226,3.8,11.0,83,0.00,,,0.00,WUHU216DAVISVP2,2013-04-17 05:40:00,
2013-04-17 01:45:00,58.2,53.1,30.04,SW,233,5.0,11.0,83,0.00,,,0.00,WUHU216DAVISVP2,2013-04-17 05:45:00,
2013-04-17 01:50:00,58.1,53.0,30.05,SSW,200,6.0,12.0,83,0.00,,,0.00,WUHU216DAVISVP2,2013-04-17 05:50:00,
2013-04-17 01:55:00,58.0,52.9,30.04,SW,216,5.0,12.0,83,0.00,,,0.00,WUHU216DAVISVP2,2013-04-17 05:55:00,
2013-04-17 02:00:00,58.0,52.9,30.04,SW,216,3.0,12.0,83,0.00,,,0.00,WUHU216DAVISVP2,2013-04-17 06:00:00,
2013-04-17 02:05:00,57.9,53.1,30.05,SW,222,6.0,12.0,84,0.00,,,0.00,WUHU216DAVISVP2,2013-04-17 06:05:00,
2013-04-17 02:10:00,57.8,53.0,30.05,WSW,247,4.2,9.0,84,0.00,,,0.00,WUHU216DAVISVP2,2013-04-17 06:10:00,
2013-04-17 02:15:00,57.8,53.0,30.04,WSW,241,4.1,13.0,84,0.00,,,0.00,WUHU216DAVISVP2,2013-04-17 06:15:00,
2013-04-17 02:20:00,57.7,52.9,30.05,SW,229,5.5,13.0,84,0.00,,,0.00,WUHU216DAVISVP2,2013-04-17 06:20:00,
2013-04-17 02:25:00,57.6,52.5,30.05,WSW,254,2.9,13.0,83,0.00,,,0.00,WUHU216DAVISVP2,2013-04-17 06:25:00,
2013-04-17 02:30:00,57.5,52.4,30.05,WSW,251,6.0,13.0,83,0.00,,,0.00,WUHU216DAVISVP2,2013-04-17 06:30:00,
2013-04-17 02:35:00,57.4,52.0,30.04,SW,225,4.1,10.0,82,0.00,,,0.00,WUHU216DAVISVP2,2013-04-17 06:35:00,
2013-04-17 02:40:00,57.4,51.7,30.04,WSW,249,2.0,9.0,81,0.00,,,0.00,WUHU216DAVISVP2,2013-04-17 06:40:00,
2013-04-17 02:45:00,57.2,51.1,30.05,SW,219,4.0,9.0,80,0.00,,,0.00,WUHU216DAVISVP2,2013-04-17 06:45:00,
2013-04-17 02:50:00,57.2,50.1,30.04,West,274,3.1,14.0,77,0.00,,,0.00,WUHU216DAVISVP2,2013-04-17 06:50:00,
2013-04-17 02:55:00,57.2,49.4,30.05,West,270,4.1,14.0,75,0.00,,,0.00,WUHU216DAVISVP2,2013-04-17 06:55:00,
2013-04-17 03:00:00,57.1,49.0,30.05,WNW,284,4.0,14.0,74,0.00,,,0.00,WUHU216DAVISVP2,2013-04-17 07:00:00,
2013-04-17 03:05:00,57.1,48.3,30.06,WNW,282,5.3,14.0,72,0.00,,,0.00,WUHU216DAVISVP2,2013-04-17 07:05:00,
2013-04-17 03:10:00,57.1,47.9,30.06,West,279,4.1,13.0,71,0.00,,,0.00,WUHU216DAVISVP2,2013-04-17 07:10:00,
2013-04-17 03:15:00,56.9,47.7,30.06,West,267,5.6,13.0,71,0.00,,,0.00,WUHU216DAVISVP2,2013-04-17 07:15:00,
2013-04-17 03:20:00,56.7,47.5,30.06,West,276,6.0,13.0,71,0.00,,,0.00,WUHU216DAVISVP2,2013-04-17 07:20:00,
2013-04-17 03:25:00,56.6,47.4,30.06,West,277,4.0,11.0,71,0.00,,,0.00,WUHU216DAVISVP2,2013-04-17 07:25:00,
2013-04-17 03:30:00,56.3,47.1,30.07,WNW,287,3.0,11.0,71,0.00,,,0.00,WUHU216DAVISVP2,2013-04-17 07:30:00,
2013-04-17 03:35:00,56.0,46.8,30.07,West,259,4.4,8.0,71,0.00,,,0.00,WUHU216DAVISVP2,2013-04-17 07:35:00,
2013-04-17 03:40:00,55.8,46.7,30.07,WSW,252,4.7,8.0,71,0.00,,,0.00,WUHU216DAVISVP2,2013-04-17 07:40:00,
2013-04-17 03:45:00,55.6,46.8,30.07,West,261,4.0,10.0,72,0.00,,,0.00,WUHU216DAVISVP2,2013-04-17 07:45:00,
2013-04-17 03:50:00,55.4,46.6,30.07,West,268,9.0,10.0,72,0.00,,,0.00,WUHU216DAVISVP2,2013-04-17 07:50:00,
2013-04-17 03:55:00,55.3,46.9,30.07,WNW,287,9.0,11.0,73,0.00,,,0.00,WUHU216DAVISVP2,2013-04-17 07:55:00,
2013-04-17 04:00:00,55.3,47.2,30.07,WNW,288,7.4,16.0,74,0.00,,,0.00,WUHU216DAVISVP2,2013-04-17 08:00:00,
2013-04-17 04:05:00,55.2,47.2,30.07,West,273,11.0,16.0,74,0.00,,,0.00,WUHU216DAVISVP2,2013-04-17 08:05:00,
2013-04-17 04:10:00,55.1,47.1,30.07,WNW,285,5.5,16.0,74,0.00,,,0.00,WUHU216DAVISVP2,2013-04-17 08:10:00,
2013-04-17 04:15:00,55.0,47.0,30.07,WNW,295,7.0,15.0,74,0.00,,,0.00,WUHU216DAVISVP2,2013-04-17 08:15:00,
2013-04-17 04:20:00,54.9,47.2,30.07,West,271,5.0,14.0,75,0.00,,,0.00,WUHU216DAVISVP2,2013-04-17 08:20:00,
2013-04-17 04:25:00,54.8,46.8,30.08,WNW,300,3.8,14.0,74,0.00,,,0.00,WUHU216DAVISVP2,2013-04-17 08:25:00,
2013-04-17 04:30:00,54.7,46.7,30.08,NW,312,5.0,14.0,74,0.00,,,0.00,WUHU216DAVISVP2,2013-04-17 08:30:00,
2013-04-17 04:35:00,54.7,46.7,30.08,WNW,301,5.1,12.0,74,0.00,,,0.00,WUHU216DAVISVP2,2013-04-17 08:35:00,
2013-04-17 04:40:00,54.6,46.6,30.08,NW,308,4.0,12.0,74,0.00,,,0.00,WUHU216DAVISVP2,2013-04-17 08:40:00,
2013-04-17 04:45:00,54.6,46.6,30.09,NW,307,2.8,10.0,74,0.00,,,0.00,WUHU216DAVISVP2,2013-04-17 08:45:00,
2013-04-17 04:50:00,54.5,46.5,30.09,WNW,302,5.0,11.0,74,0.00,,,0.00,WUHU216DAVISVP2,2013-04-17 08:50:00,
2013-04-17 04:55:00,54.3,46.3,30.09,NW,306,3.4,11.0,74,0.00,,,0.00,WUHU216DAVISVP2,2013-04-17 08:55:00,
2013-04-17 05:00:00,54.3,45.6,30.09,WNW,303,3.6,12.0,72,0.00,,,0.00,WUHU216DAVISVP2,2013-04-17 09:00:00,
2013-04-17 05:05:00,54.1,45.4,30.09,WNW,296,7.0,12.0,72,0.00,,,0.00,WUHU216DAVISVP2,2013-04-17 09:05:00,
2013-04-17 05:10:00,53.9,45.2,30.09,WNW,303,6.1,12.0,72,0.00,,,0.00,WUHU216DAVISVP2,2013-04-17 09:10:00,
2013-04-17 05:15:00,53.8,44.4,30.09,WNW,303,6.0,12.0,70,0.00,,,0.00,WUHU216DAVISVP2,2013-04-17 09:15:00,
2013-04-17 05:20:00,53.6,44.2,30.10,WNW,287,10.0,13.0,70,0.00,,,0.00,WUHU216DAVISVP2,2013-04-17 09:20:00,
2013-04-17 05:25:00,53.3,43.1,30.09,WNW,296,14.0,14.0,68,0.00,,,0.00,WUHU216DAVISVP2,2013-04-17 09:25:00,
2013-04-17 05:30:00,53.1,42.5,30.10,NW,318,6.1,14.0,67,0.00,,,0.00,WUHU216DAVISVP2,2013-04-17 09:30:00,
2013-04-17 05:35:00,53.1,42.5,30.10,WNW,284,5.0,14.0,67,0.00,,,0.00,WUHU216DAVISVP2,2013-04-17 09:35:00,
2013-04-17 05:40:00,52.9,42.4,30.10,NW,310,6.0,14.0,67,0.00,,,0.00,WUHU216DAVISVP2,2013-04-17 09:40:00,
2013-04-17 05:45:00,52.7,42.6,30.10,WNW,301,7.0,12.0,68,0.00,,,0.00,WUHU216DAVISVP2,2013-04-17 09:45:00,
2013-04-17 05:50:00,52.4,42.3,30.11,WNW,303,6.6,16.0,68,0.00,,,0.00,WUHU216DAVISVP2,2013-04-17 09:50:00,
2013-04-17 05:55:00,52.2,41.7,30.11,NW,305,6.5,16.0,67,0.00,,,0.00,WUHU216DAVISVP2,2013-04-17 09:55:00,
2013-04-17 06:00:00,52.0,41.9,30.11,NW,306,7.7,16.0,68,0.00,,,0.00,WUHU216DAVISVP2,2013-04-17 10:00:00,
2013-04-17 06:05:00,51.9,41.8,30.11,WNW,287,6.0,16.0,68,0.00,,,0.00,WUHU216DAVISVP2,2013-04-17 10:05:00,
2013-04-17 06:10:00,51.7,41.6,30.11,WNW,300,9.5,15.0,68,0.00,,,0.00,WUHU216DAVISVP2,2013-04-17 10:10:00,
2013-04-17 06:15:00,51.5,41.8,30.11,WNW,298,4.8,15.0,69,0.00,,,0.00,WUHU216DAVISVP2,2013-04-17 10:15:00,
2013-04-17 06:20:00,51.2,41.9,30.11,WNW,302,4.6,15.0,70,0.00,,,0.00,WUHU216DAVISVP2,2013-04-17 10:20:00,
2013-04-17 06:25:00,51.0,41.7,30.11,WNW,289,11.0,15.0,70,0.00,,,0.00,WUHU216DAVISVP2,2013-04-17 10:25:00,
2013-04-17 06:30:00,50.9,41.6,30.11,NW,307,3.9,11.0,70,0.00,,,0.00,WUHU216DAVISVP2,2013-04-17 10:30:00,
2013-04-17 06:35:00,50.8,41.8,30.12,NW,320,2.8,11.0,71,0.00,,,0.00,WUHU216DAVISVP2,2013-04-17 10:35:00,
2013-04-17 06:40:00,50.7,41.7,30.13,WNW,303,3.3,11.0,71,0.00,,,0.00,WUHU216DAVISVP2,2013-04-17 10:40:00,
2013-04-17 06:45:00,50.5,41.5,30.13,NW,317,1.0,9.0,71,0.00,,,0.00,WUHU216DAVISVP2,2013-04-17 10:45:00,
2013-04-17 06:50:00,50.3,41.7,30.13,NW,315,2.4,9.0,72,0.00,,,0.00,WUHU216DAVISVP2,2013-04-17 10:50:00,
2013-04-17 06:55:00,50.3,41.7,30.13,NW,316,1.8,8.0,72,0.00,,,0.00,WUHU216DAVISVP2,2013-04-17 10:55:00,
2013-04-17 07:00:00,50.2,41.6,30.13,NW,316,1.3,5.0,72,0.00,,,0.00,WUHU216DAVISVP2,2013-04-17 11:00:00,
2013-04-17 07:05:00,50.2,41.6,30.13,NW,323,1.3,5.0,72,0.00,,,0.00,WUHU216DAVISVP2,2013-04-17 11:05:00,
2013-04-17 07:10:00,50.3,41.7,30.14,NW,313,4.7,8.0,72,0.00,,,0.00,WUHU216DAVISVP2,2013-04-17 11:10:00,
2013-04-17 07:15:00,50.5,41.9,30.14,NW,317,1.6,8.0,72,0.00,,,0.00,WUHU216DAVISVP2,2013-04-17 11:15:00,
2013-04-17 07:20:00,50.7,42.1,30.15,WNW,298,3.0,8.0,72,0.00,,,0.00,WUHU216DAVISVP2,2013-04-17 11:20:00,
2013-04-17 07:25:00,50.9,41.9,30.15,NW,308,3.6,9.0,71,0.00,,,0.00,WUHU216DAVISVP2,2013-04-17 11:25:00,
2013-04-17 07:30:00,50.9,41.2,30.15,NNW,336,2.4,9.0,69,0.00,,,0.00,WUHU216DAVISVP2,2013-04-17 11:30:00,
2013-04-17 07:35:00,51.0,41.3,30.15,NW,310,5.1,9.0,69,0.00,,,0.00,WUHU216DAVISVP2,2013-04-17 11:35:00,
2013-04-17 07:40:00,51.2,41.1,30.15,NW,321,3.1,11.0,68,0.00,,,0.00,WUHU216DAVISVP2,2013-04-17 11:40:00,
2013-04-17 07:45:00,51.2,40.0,30.15,NW,306,5.0,11.0,65,0.00,,,0.00,WUHU216DAVISVP2,2013-04-17 11:45:00,
2013-04-17 07:51:00,51.3,38.8,30.15,NW,316,6.4,11.0,62,0.00,,,0.00,WUHU216DAVISVP2,2013-04-17 11:51:00,
2013-04-17 07:56:00,51.4,38.1,30.16,NNW,333,3.4,11.0,60,0.00,,,0.00,WUHU216DAVISVP2,2013-04-17 11:56:00,
2013-04-17 08:00:00,51.3,37.0,30.16,NW,315,4.0,11.0,58,0.00,,,0.00,WUHU216DAVISVP2,2013-04-17 12:00:00,
2013-04-17 08:01:00,51.3,37.5,30.16,North,355,9.0,11.0,59,0.00,,,0.00,WUHU216DAVISVP2,2013-04-17 12:01:00,
2013-04-17 08:06:00,51.2,37.0,30.16,NNW,333,7.0,11.0,58,0.00,,,0.00,WUHU216DAVISVP2,2013-04-17 12:06:00,
2013-04-17 08:11:00,51.1,36.9,30.17,WNW,294,7.0,17.0,58,0.00,,,0.00,WUHU216DAVISVP2,2013-04-17 12:11:00,
2013-04-17 08:15:00,51.1,36.0,30.16,NW,316,7.3,17.0,56,0.00,,,0.00,WUHU216DAVISVP2,2013-04-17 12:15:00,
2013-04-17 08:20:00,51.2,35.6,30.17,NW,316,6.6,17.0,55,0.00,,,0.00,WUHU216DAVISVP2,2013-04-17 12:20:00,
2013-04-17 08:25:00,51.3,36.2,30.17,NNW,347,3.6,15.0,56,0.00,,,0.00,WUHU216DAVISVP2,2013-04-17 12:25:00,
2013-04-17 08:30:00,51.5,35.9,30.17,NW,305,6.5,16.0,55,0.00,,,0.00,WUHU216DAVISVP2,2013-04-17 12:30:00,
2013-04-17 08:36:00,51.5,36.4,30.17,NW,315,4.6,16.0,56,0.00,,,0.00,WUHU216DAVISVP2,2013-04-17 12:36:00,
2013-04-17 08:41:00,51.8,35.7,30.17,NW,309,5.0,16.0,54,0.00,,,0.00,WUHU216DAVISVP2,2013-04-17 12:41:00,
2013-04-17 08:46:00,52.0,35.9,30.17,NNW,338,8.0,16.0,54,0.00,,,0.00,WUHU216DAVISVP2,2013-04-17 12:46:00,
2013-04-17 08:51:00,52.1,36.0,30.17,NW,323,3.1,13.0,54,0.00,,,0.00,WUHU216DAVISVP2,2013-04-17 12:51:00,
2013-04-17 08:56:00,52.4,36.8,30.17,WNW,300,7.0,12.0,55,0.00,,,0.00,WUHU216DAVISVP2,2013-04-17 12:56:00,
2013-04-17 09:00:00,52.5,35.8,30.17,NW,315,5.0,16.0,53,0.00,,,0.00,WUHU216DAVISVP2,2013-04-17 13:00:00,
2013-04-17 09:01:00,52.5,36.8,30.17,NW,308,6.0,16.0,55,0.00,,,0.00,WUHU216DAVISVP2,2013-04-17 13:01:00,
2013-04-17 09:06:00,52.4,35.3,30.18,WNW,300,14.0,16.0,52,0.00,,,0.00,WUHU216DAVISVP2,2013-04-17 13:06:00,
2013-04-17 09:11:00,52.4,35.3,30.18,WNW,303,7.7,16.0,52,0.00,,,0.00,WUHU216DAVISVP2,2013-04-17 13:11:00,
2013-04-17 09:16:00,52.5,34.9,30.18,NW,309,4.4,16.0,51,0.00,,,0.00,WUHU216DAVISVP2,2013-04-17 13:16:00,
2013-04-17 09:21:00,52.5,34.4,30.18,NW,319,5.0,16.0,50,0.00,,,0.00,WUHU216DAVISVP2,2013-04-17 13:21:00,
2013-04-17 09:26:00,52.8,35.7,30.18,NW,317,4.8,16.0,52,0.00,,,0.00,WUHU216DAVISVP2,2013-04-17 13:26:00,
2013-04-17 09:30:00,53.2,35.5,30.18,NW,315,5.0,16.0,51,0.00,,,0.00,WUHU216DAVISVP2,2013-04-17 13:30:00,
2013-04-17 09:31:00,53.1,35.4,30.18,NNW,329,3.0,16.0,51,0.00,,,0.00,WUHU216DAVISVP2,2013-04-17 13:31:00,
2013-04-17 09:36:00,53.3,34.1,30.18,NW,307,5.5,14.0,48,0.00,,,0.00,WUHU216DAVISVP2,2013-04-17 13:36:00,
2013-04-17 09:41:00,53.1,35.4,30.18,West,273,20.0,20.0,51,0.00,,,0.00,WUHU216DAVISVP2,2013-04-17 13:41:00,
2013-04-17 09:46:00,53.4,34.1,30.18,WNW,303,11.7,21.0,48,0.00,,,0.00,WUHU216DAVISVP2,2013-04-17 13:46:00,
2013-04-17 09:51:00,53.6,35.9,30.18,WNW,295,11.0,21.0,51,0.00,,,0.00,WUHU216DAVISVP2,2013-04-17 13:51:00,
2013-04-17 09:56:00,53.8,34.5,30.18,NW,307,10.0,21.0,48,0.00,,,0.00,WUHU216DAVISVP2,2013-04-17 13:56:00,
2013-04-17 10:00:00,53.9,35.2,30.18,WNW,293,8.0,21.0,49,0.00,,,0.00,WUHU216DAVISVP2,2013-04-17 14:00:00,
2013-04-17 10:01:00,53.9,34.6,30.18,WNW,300,4.2,19.0,48,0.00,,,0.00,WUHU216DAVISVP2,2013-04-17 14:01:00,
2013-04-17 10:06:00,54.2,34.9,30.18,WNW,302,5.0,17.0,48,0.00,,,0.00,WUHU216DAVISVP2,2013-04-17 14:06:00,
2013-04-17 10:11:00,54.2,34.3,30.18,NW,316,7.1,15.0,47,0.00,,,0.00,WUHU216DAVISVP2,2013-04-17 14:11:00,
2013-04-17 10:16:00,54.3,35.0,30.18,NW,307,3.6,15.0,48,0.00,,,0.00,WUHU216DAVISVP2,2013-04-17 14:16:00,
2013-04-17 10:21:00,54.8,35.4,30.18,NW,308,3.5,15.0,48,0.00,,,0.00,WUHU216DAVISVP2,2013-04-17 14:21:00,
2013-04-17 10:26:00,55.4,35.4,30.18,NW,320,2.3,15.0,47,0.00,,,0.00,WUHU216DAVISVP2,2013-04-17 14:26:00,
2013-04-17 10:30:00,55.4,34.4,30.18,NW,315,5.0,15.0,45,0.00,,,0.00,WUHU216DAVISVP2,2013-04-17 14:30:00,
2013-04-17 10:31:00,55.5,36.1,30.18,WNW,302,9.0,14.0,48,0.00,,,0.00,WUHU216DAVISVP2,2013-04-17 14:31:00,
2013-04-17 10:36:00,55.8,35.8,30.18,West,273,6.0,11.0,47,0.00,,,0.00,WUHU216DAVISVP2,2013-04-17 14:36:00,
2013-04-17 10:41:00,56.0,34.3,30.18,WNW,300,9.7,13.0,44,0.00,,,0.00,WUHU216DAVISVP2,2013-04-17 14:41:00,
2013-04-17 10:46:00,55.7,34.6,30.18,WNW,297,10.0,17.0,45,0.00,,,0.00,WUHU216DAVISVP2,2013-04-17 14:46:00,
2013-04-17 10:51:00,56.1,34.4,30.18,WNW,292,9.0,17.0,44,0.00,,,0.00,WUHU216DAVISVP2,2013-04-17 14:51:00,
2013-04-17 10:56:00,56.4,35.8,30.17,NW,305,6.3,17.0,46,0.00,,,0.00,WUHU216DAVISVP2,2013-04-17 14:56:00,
2013-04-17 11:00:00,57.0,35.3,30.18,WNW,293,6.0,17.0,44,0.00,,,0.00,WUHU216DAVISVP2,2013-04-17 15:00:00,
2013-04-17 11:01:00,57.1,36.4,30.18,NW,311,4.4,17.0,46,0.00,,,0.00,WUHU216DAVISVP2,2013-04-17 15:01:00,
2013-04-17 11:06:00,57.1,35.3,30.18,WNW,298,6.8,12.0,44,0.00,,,0.00,WUHU216DAVISVP2,2013-04-17 15:06:00,
2013-04-17 11:11:00,57.1,35.9,30.18,NW,315,2.8,12.0,45,0.00,,,0.00,WUHU216DAVISVP2,2013-04-17 15:11:00,
2013-04-17 11:16:00,57.5,36.2,30.18,NW,313,9.0,11.0,45,0.00,,,0.00,WUHU216DAVISVP2,2013-04-17 15:16:00,
2013-04-17 11:21:00,57.5,34.4,30.18,NW,311,6.0,13.0,42,0.00,,,0.00,WUHU216DAVISVP2,2013-04-17 15:21:00,
2013-04-17 11:26:00,57.7,34.6,30.18,NW,314,3.0,13.0,42,0.00,,,0.00,WUHU216DAVISVP2,2013-04-17 15:26:00,
2013-04-17 11:30:00,58.1,38.0,30.18,NW,315,4.0,13.0,47,0.00,,,0.00,WUHU216DAVISVP2,2013-04-17 15:30:00,
2013-04-17 11:31:00,58.4,36.5,30.18,NW,324,7.0,13.0,44,0.00,,,0.00,WUHU216DAVISVP2,2013-04-17 15:31:00,
2013-04-17 11:36:00,58.5,35.3,30.18,NNW,341,2.0,11.0,42,0.00,,,0.00,WUHU216DAVISVP2,2013-04-17 15:36:00,
2013-04-17 11:41:00,58.6,36.0,30.18,NW,314,6.0,11.0,43,0.00,,,0.00,WUHU216DAVISVP2,2013-04-17 15:41:00,
2013-04-17 11:46:00,59.0,36.4,30.17,WNW,292,7.0,12.0,43,0.00,,,0.00,WUHU216DAVISVP2,2013-04-17 15:46:00,
2013-04-17 11:51:00,59.0,37.0,30.18,North,360,7.0,14.0,44,0.00,,,0.00,WUHU216DAVISVP2,2013-04-17 15:51:00,
2013-04-17 11:56:00,59.2,34.1,30.17,ENE,60,2.7,14.0,39,0.00,,,0.00,WUHU216DAVISVP2,2013-04-17 15:56:00,
2013-04-17 12:00:00,59.5,37.0,30.17,NW,315,4.0,14.0,43,0.00,,,0.00,WUHU216DAVISVP2,2013-04-17 16:00:00,
2013-04-17 12:01:00,59.5,36.9,30.17,North,354,2.6,14.0,43,0.00,,,0.00,WUHU216DAVISVP2,2013-04-17 16:01:00,
2013-04-17 12:06:00,59.8,35.3,30.17,NNE,19,3.5,14.0,40,0.00,,,0.00,WUHU216DAVISVP2,2013-04-17 16:06:00,
2013-04-17 12:11:00,59.7,35.2,30.17,NW,326,4.0,8.0,40,0.00,,,0.00,WUHU216DAVISVP2,2013-04-17 16:11:00,
2013-04-17 12:16:00,59.8,35.3,30.17,North,359,3.6,8.0,40,0.00,,,0.00,WUHU216DAVISVP2,2013-04-17 16:16:00,
2013-04-17 12:21:00,60.4,35.8,30.17,NNW,334,1.0,11.0,40,0.00,,,0.00,WUHU216DAVISVP2,2013-04-17 16:21:00,
2013-04-17 12:26:00,60.1,35.5,30.17,NW,309,4.2,11.0,40,0.00,,,0.00,WUHU216DAVISVP2,2013-04-17 16:26:00,
2013-04-17 12:30:00,60.4,35.9,30.17,NW,315,4.0,11.0,40,0.00,,,0.00,WUHU216DAVISVP2,2013-04-17 16:30:00,
2013-04-17 12:31:00,60.5,36.5,30.17,NW,311,5.0,11.0,41,0.00,,,0.00,WUHU216DAVISVP2,2013-04-17 16:31:00,
2013-04-17 12:36:00,60.2,34.3,30.17,NW,316,4.4,13.0,38,0.00,,,0.00,WUHU216DAVISVP2,2013-04-17 16:36:00,
2013-04-17 12:41:00,60.6,37.3,30.17,NW,304,8.0,13.0,42,0.00,,,0.00,WUHU216DAVISVP2,2013-04-17 16:41:00,
2013-04-17 12:46:00,60.5,38.4,30.17,NW,309,3.0,16.0,44,0.00,,,0.00,WUHU216DAVISVP2,2013-04-17 16:46:00,
2013-04-17 12:51:00,60.3,33.0,30.17,NW,315,6.3,16.0,36,0.00,,,0.00,WUHU216DAVISVP2,2013-04-17 16:51:00,
2013-04-17 12:56:00,60.5,36.0,30.17,NW,309,3.0,16.0,40,0.00,,,0.00,WUHU216DAVISVP2,2013-04-17 16:56:00,
2013-04-17 13:00:00,60.9,35.1,30.17,NW,315,5.0,16.0,38,0.00,,,0.00,WUHU216DAVISVP2,2013-04-17 17:00:00,
2013-04-17 13:01:00,60.9,35.1,30.17,NW,319,4.5,13.0,38,0.00,,,0.00,WUHU216DAVISVP2,2013-04-17 17:01:00,
2013-04-17 13:06:00,60.9,35.8,30.17,NNW,333,6.7,12.0,39,0.00,,,0.00,WUHU216DAVISVP2,2013-04-17 17:06:00,
2013-04-17 13:11:00,61.4,35.5,30.17,West,280,4.5,13.0,38,0.00,,,0.00,WUHU216DAVISVP2,2013-04-17 17:11:00,
2013-04-17 13:16:00,61.1,35.1,30.17,NW,324,5.0,13.0,38,0.00,,,0.00,WUHU216DAVISVP2,2013-04-17 17:16:00,
2013-04-17 13:21:00,61.8,37.1,30.16,NNW,335,5.0,13.0,40,0.00,,,0.00,WUHU216DAVISVP2,2013-04-17 17:21:00,
2013-04-17 13:26:00,62.0,34.5,30.16,WNW,296,10.0,13.0,36,0.00,,,0.00,WUHU216DAVISVP2,2013-04-17 17:26:00,
2013-04-17 13:30:00,61.8,36.6,30.16,NW,315,5.0,13.0,39,0.00,,,0.00,WUHU216DAVISVP2,2013-04-17 17:30:00,
2013-04-17 13:31:00,61.8,36.4,30.16,NNE,24,4.0,13.0,39,0.00,,,0.00,WUHU216DAVISVP2,2013-04-17 17:31:00,
2013-04-17 13:36:00,62.3,35.5,30.17,NNW,340,5.0,13.0,37,0.00,,,0.00,WUHU216DAVISVP2,2013-04-17 17:36:00,
2013-04-17 13:41:00,62.5,35.2,30.16,West,281,12.0,13.0,36,0.00,,,0.00,WUHU216DAVISVP2,2013-04-17 17:41:00,
2013-04-17 13:46:00,62.5,35.2,30.16,West,275,10.0,13.0,36,0.00,,,0.00,WUHU216DAVISVP2,2013-04-17 17:46:00,
2013-04-17 13:51:00,61.9,33.9,30.16,WNW,294,7.0,14.0,35,0.00,,,0.00,WUHU216DAVISVP2,2013-04-17 17:51:00,
2013-04-17 13:57:00,62.1,34.6,30.16,NW,307,4.0,14.0,36,0.00,,,0.00,WUHU216DAVISVP2,2013-04-17 17:57:00,
2013-04-17 14:00:00,62.3,37.7,30.16,NW,315,5.0,14.0,40,0.00,,,0.00,WUHU216DAVISVP2,2013-04-17 18:00:00,
2013-04-17 14:02:00,62.4,34.2,30.16,WNW,302,13.0,14.0,35,0.00,,,0.00,WUHU216DAVISVP2,2013-04-17 18:02:00,
2013-04-17 14:07:00,62.5,34.3,30.16,NW,310,11.0,15.0,35,0.00,,,0.00,WUHU216DAVISVP2,2013-04-17 18:07:00,
2013-04-17 14:12:00,62.2,36.1,30.16,WNW,299,6.0,15.0,38,0.00,,,0.00,WUHU216DAVISVP2,2013-04-17 18:12:00,
2013-04-17 14:17:00,62.5,35.0,30.16,North,5,3.0,15.0,36,0.00,,,0.00,WUHU216DAVISVP2,2013-04-17 18:17:00,
2013-04-17 14:21:00,62.7,35.3,30.16,West,279,9.0,15.0,36,0.00,,,0.00,WUHU216DAVISVP2,2013-04-17 18:21:00,
2013-04-17 14:27:00,62.7,34.6,30.16,West,278,15.0,19.0,35,0.00,,,0.00,WUHU216DAVISVP2,2013-04-17 18:27:00,
2013-04-17 14:30:00,62.6,35.3,30.16,NW,315,6.0,19.0,36,0.00,,,0.00,WUHU216DAVISVP2,2013-04-17 18:30:00,
2013-04-17 14:32:00,62.8,38.0,30.16,NW,319,3.0,19.0,40,0.00,,,0.00,WUHU216DAVISVP2,2013-04-17 18:32:00,
2013-04-17 14:37:00,63.2,34.1,30.16,WNW,302,8.3,19.0,34,0.00,,,0.00,WUHU216DAVISVP2,2013-04-17 18:37:00,
2013-04-17 14:42:00,62.9,33.9,30.16,NW,312,4.8,19.0,34,0.00,,,0.00,WUHU216DAVISVP2,2013-04-17 18:42:00,
2013-04-17 14:47:00,62.9,33.9,30.16,WNW,294,11.5,18.0,34,0.00,,,0.00,WUHU216DAVISVP2,2013-04-17 18:47:00,
2013-04-17 14:52:00,63.1,35.5,30.16,West,267,7.0,18.0,36,0.00,,,0.00,WUHU216DAVISVP2,2013-04-17 18:52:00,
2013-04-17 14:57:00,63.4,35.8,30.16,NW,311,2.0,18.0,36,0.00,,,0.00,WUHU216DAVISVP2,2013-04-17 18:57:00,
2013-04-17 15:00:00,63.8,34.1,30.17,WNW,293,6.0,18.0,33,0.00,,,0.00,WUHU216DAVISVP2,2013-04-17 19:00:00,
2013-04-17 15:02:00,63.8,33.9,30.17,NNW,334,8.0,18.0,33,0.00,,,0.00,WUHU216DAVISVP2,2013-04-17 19:02:00,
2013-04-17 15:07:00,63.5,35.3,30.17,NNW,341,3.0,14.0,35,0.00,,,0.00,WUHU216DAVISVP2,2013-04-17 19:07:00,
2013-04-17 15:12:00,63.6,34.5,30.17,NNW,331,4.0,14.0,34,0.00,,,0.00,WUHU216DAVISVP2,2013-04-17 19:12:00,
2013-04-17 15:17:00,63.5,34.4,30.17,NNW,333,5.0,12.0,34,0.00,,,0.00,WUHU216DAVISVP2,2013-04-17 19:17:00,
2013-04-17 15:22:00,63.8,33.9,30.17,WNW,302,7.5,14.0,33,0.00,,,0.00,WUHU216DAVISVP2,2013-04-17 19:22:00,
2013-04-17 15:27:00,63.8,34.1,30.17,NW,323,5.0,14.0,33,0.00,,,0.00,WUHU216DAVISVP2,2013-04-17 19:27:00,
2013-04-17 15:30:00,63.8,35.6,30.17,NW,315,5.0,14.0,35,0.00,,,0.00,WUHU216DAVISVP2,2013-04-17 19:30:00,
2013-04-17 15:32:00,63.7,34.0,30.17,WNW,303,6.0,14.0,33,0.00,,,0.00,WUHU216DAVISVP2,2013-04-17 19:32:00,
2013-04-17 15:37:00,63.6,33.8,30.17,NNW,342,3.0,14.0,33,0.00,,,0.00,WUHU216DAVISVP2,2013-04-17 19:37:00,
2013-04-17 15:42:00,64.1,34.2,30.17,NNW,348,1.0,11.0,33,0.00,,,0.00,WUHU216DAVISVP2,2013-04-17 19:42:00,
2013-04-17 15:47:00,64.5,34.5,30.17,NW,311,8.5,11.0,33,0.00,,,0.00,WUHU216DAVISVP2,2013-04-17 19:47:00,
2013-04-17 15:52:00,64.4,32.1,30.17,North,355,2.5,11.0,30,0.00,,,0.00,WUHU216DAVISVP2,2013-04-17 19:52:00,
2013-04-17 15:57:00,64.1,32.6,30.17,WNW,285,7.3,12.0,31,0.00,,,0.00,WUHU216DAVISVP2,2013-04-17 19:57:00,
2013-04-17 16:00:00,63.9,35.7,30.17,NNW,338,4.0,12.0,35,0.00,,,0.00,WUHU216DAVISVP2,2013-04-17 20:00:00,
2013-04-17 16:02:00,64.0,31.7,30.18,WNW,297,6.7,13.0,30,0.00,,,0.00,WUHU216DAVISVP2,2013-04-17 20:02:00,
2013-04-17 16:07:00,63.9,33.2,30.18,NNW,330,4.0,13.0,32,0.00,,,0.00,WUHU216DAVISVP2,2013-04-17 20:07:00,
2013-04-17 16:12:00,63.7,34.6,30.18,NNW,329,4.0,13.0,34,0.00,,,0.00,WUHU216DAVISVP2,2013-04-17 20:12:00,
2013-04-17 16:17:00,63.8,32.6,30.18,WNW,299,6.5,18.0,31,0.00,,,0.00,WUHU216DAVISVP2,2013-04-17 20:17:00,
2013-04-17 16:22:00,63.6,33.2,30.18,WNW,303,7.0,18.0,32,0.00,,,0.00,WUHU216DAVISVP2,2013-04-17 20:22:00,
2013-04-17 16:27:00,63.3,31.9,30.17,WNW,300,7.0,18.0,31,0.00,,,0.00,WUHU216DAVISVP2,2013-04-17 20:27:00,
2013-04-17 16:30:00,63.3,32.1,30.17,NW,315,5.0,18.0,31,0.00,,,0.00,WUHU216DAVISVP2,2013-04-17 20:30:00,
2013-04-17 16:32:00,63.4,32.8,30.17,NNE,12,4.0,18.0,32,0.00,,,0.00,WUHU216DAVISVP2,2013-04-17 20:32:00,
2013-04-17 16:37:00,63.6,32.2,30.18,NW,319,6.8,13.0,31,0.00,,,0.00,WUHU216DAVISVP2,2013-04-17 20:37:00,
2013-04-17 16:42:00,63.3,32.7,30.18,NNW,330,4.0,13.0,32,0.00,,,0.00,WUHU216DAVISVP2,2013-04-17 20:42:00,
2013-04-17 16:47:00,63.5,35.9,30.18,North,355,1.0,13.0,36,0.00,,,0.00,WUHU216DAVISVP2,2013-04-17 20:47:00,
2013-04-17 16:52:00,64.3,33.6,30.18,NW,323,7.0,12.0,32,0.00,,,0.00,WUHU216DAVISVP2,2013-04-17 20:52:00,
2013-04-17 16:57:00,64.2,32.7,30.18,NW,311,7.0,9.0,31,0.00,,,0.00,WUHU216DAVISVP2,2013-04-17 20:57:00,
2013-04-17 17:00:00,63.8,32.6,30.19,NW,315,4.0,13.0,31,0.00,,,0.00,WUHU216DAVISVP2,2013-04-17 21:00:00,
2013-04-17 17:02:00,63.6,33.0,30.19,NW,317,3.0,13.0,32,0.00,,,0.00,WUHU216DAVISVP2,2013-04-17 21:02:00,
2013-04-17 17:07:00,63.4,34.3,30.19,North,349,3.0,13.0,34,0.00,,,0.00,WUHU216DAVISVP2,2013-04-17 21:07:00,
2013-04-17 17:12:00,63.5,32.9,30.20,NW,325,3.0,13.0,32,0.00,,,0.00,WUHU216DAVISVP2,2013-04-17 21:12:00,
2013-04-17 17:17:00,63.2,32.6,30.20,WNW,289,3.0,8.0,32,0.00,,,0.00,WUHU216DAVISVP2,2013-04-17 21:17:00,
2013-04-17 17:22:00,62.9,34.6,30.20,West,281,6.0,11.0,35,0.00,,,0.00,WUHU216DAVISVP2,2013-04-17 21:22:00,
2013-04-17 17:27:00,63.2,33.4,30.20,NNW,338,1.0,11.0,33,0.00,,,0.00,WUHU216DAVISVP2,2013-04-17 21:27:00,
2013-04-17 17:30:00,63.3,32.9,30.20,NW,315,5.0,16.0,32,0.00,,,0.00,WUHU216DAVISVP2,2013-04-17 21:30:00,
2013-04-17 17:32:00,63.2,33.4,30.20,NNW,338,1.0,8.0,33,0.00,,,0.00,WUHU216DAVISVP2,2013-04-17 21:32:00,
2013-04-17 18:00:00,62.7,31.6,30.22,NW,315,4.0,12.0,31,0.00,,,0.00,WUHU216DAVISVP2,2013-04-17 22:00:00,
2013-04-17 18:27:00,60.9,31.4,30.23,NNW,329,1.0,10.0,33,0.00,,,0.00,WUHU216DAVISVP2,2013-04-17 22:27:00,
2013-04-17 18:30:00,60.7,33.6,30.23,NW,315,3.0,10.0,36,0.00,,,0.00,WUHU216DAVISVP2,2013-04-17 22:30:00,
2013-04-17 18:32:00,60.5,32.5,30.24,NNW,336,5.0,10.0,35,0.00,,,0.00,WUHU216DAVISVP2,2013-04-17 22:32:00,
2013-04-17 18:37:00,60.5,31.8,30.23,NNW,333,2.3,10.0,34,0.00,,,0.00,WUHU216DAVISVP2,2013-04-17 22:37:00,
2013-04-17 18:42:00,60.5,31.0,30.23,WNW,303,3.5,7.0,33,0.00,,,0.00,WUHU216DAVISVP2,2013-04-17 22:42:00,
2013-04-17 18:47:00,60.2,32.2,30.24,NW,325,3.0,7.0,35,0.00,,,0.00,WUHU216DAVISVP2,2013-04-17 22:47:00,
2013-04-17 18:52:00,59.8,31.9,30.24,NNW,330,0.0,7.0,35,0.00,,,0.00,WUHU216DAVISVP2,2013-04-17 22:52:00,
2013-04-17 18:57:00,59.5,32.3,30.24,NNW,338,1.5,7.0,36,0.00,,,0.00,WUHU216DAVISVP2,2013-04-17 22:57:00,
2013-04-17 19:00:00,59.3,32.3,30.24,NNW,338,2.0,7.0,36,0.00,,,0.00,WUHU216DAVISVP2,2013-04-17 23:00:00,
2013-04-17 19:02:00,59.2,32.7,30.24,NNW,334,3.7,7.0,37,0.00,,,0.00,WUHU216DAVISVP2,2013-04-17 23:02:00,
2013-04-17 19:07:00,59.1,32.6,30.24,NNW,335,2.5,9.0,37,0.00,,,0.00,WUHU216DAVISVP2,2013-04-17 23:07:00,
2013-04-17 19:12:00,58.9,32.5,30.24,NNW,327,2.4,9.0,37,0.00,,,0.00,WUHU216DAVISVP2,2013-04-17 23:12:00,
2013-04-17 19:17:00,58.7,32.3,30.24,NW,322,2.4,9.0,37,0.00,,,0.00,WUHU216DAVISVP2,2013-04-17 23:17:00,
2013-04-17 19:22:00,58.5,32.8,30.25,NW,315,1.8,9.0,38,0.00,,,0.00,WUHU216DAVISVP2,2013-04-17 23:22:00,
2013-04-17 19:27:00,58.2,32.5,30.25,NW,306,2.3,6.0,38,0.00,,,0.00,WUHU216DAVISVP2,2013-04-17 23:27:00,
2013-04-17 19:30:00,58.0,32.5,30.25,NNW,338,1.0,9.0,38,0.00,,,0.00,WUHU216DAVISVP2,2013-04-17 23:30:00,
2013-04-17 19:32:00,57.7,32.9,30.25,NW,313,1.0,6.0,39,0.00,,,0.00,WUHU216DAVISVP2,2013-04-17 23:32:00,
2013-04-17 19:37:00,57.5,32.7,30.25,NW,312,1.0,4.0,39,0.00,,,0.00,WUHU216DAVISVP2,2013-04-17 23:37:00,
2013-04-17 19:42:00,57.2,32.4,30.25,NW,313,1.8,4.0,39,0.00,,,0.00,WUHU216DAVISVP2,2013-04-17 23:42:00,
2013-04-17 19:47:00,57.1,33.6,30.26,NW,313,0.0,4.0,41,0.00,,,0.00,WUHU216DAVISVP2,2013-04-17 23:47:00,
2013-04-17 19:52:00,56.8,32.6,30.26,NW,313,0.0,4.0,40,0.00,,,0.00,WUHU216DAVISVP2,2013-04-17 23:52:00,
2013-04-17 19:57:00,56.6,33.6,30.27,NW,313,0.0,4.0,42,0.00,,,0.00,WUHU216DAVISVP2,2013-04-17 23:57:00,
2013-04-17 20:00:00,56.4,34.2,30.27,NW,315,0.0,4.0,43,0.00,,,0.00,WUHU216DAVISVP2,2013-04-18 00:00:00,
2013-04-17 20:02:00,56.4,34.0,30.27,NW,313,0.0,2.0,43,0.00,,,0.00,WUHU216DAVISVP2,2013-04-18 00:02:00,
2013-04-17 20:07:00,56.0,33.1,30.27,NW,313,0.0,2.0,42,0.00,,,0.00,WUHU216DAVISVP2,2013-04-18 00:07:00,
2013-04-17 20:12:00,55.5,33.2,30.28,NW,313,0.0,2.0,43,0.00,,,0.00,WUHU216DAVISVP2,2013-04-18 00:12:00,
2013-04-17 20:17:00,55.1,32.9,30.28,NW,313,0.0,1.0,43,0.00,,,0.00,WUHU216DAVISVP2,2013-04-18 00:17:00,
2013-04-17 20:22:00,54.6,33.0,30.29,NW,313,1.0,3.0,44,0.00,,,0.00,WUHU216DAVISVP2,2013-04-18 00:22:00,
2013-04-17 20:27:00,54.2,33.2,30.29,NW,313,0.0,3.0,45,0.00,,,0.00,WUHU216DAVISVP2,2013-04-18 00:27:00,
2013-04-17 20:30:00,54.1,33.2,30.29,NW,315,0.0,3.0,45,0.00,,,0.00,WUHU216DAVISVP2,2013-04-18 00:30:00,
2013-04-17 20:32:00,54.0,32.5,30.29,NW,313,0.0,3.0,44,0.00,,,0.00,WUHU216DAVISVP2,2013-04-18 00:32:00,
2013-04-17 20:37:00,53.8,31.7,30.29,NW,315,1.3,3.0,43,0.00,,,0.00,WUHU216DAVISVP2,2013-04-18 00:37:00,
2013-04-17 20:42:00,53.9,31.2,30.29,NW,321,1.4,4.0,42,0.00,,,0.00,WUHU216DAVISVP2,2013-04-18 00:42:00,
2013-04-17 20:47:00,54.0,31.3,30.29,NW,325,1.3,4.0,42,0.00,,,0.00,WUHU216DAVISVP2,2013-04-18 00:47:00,
2013-04-17 20:52:00,54.0,31.3,30.29,NW,325,0.0,4.0,42,0.00,,,0.00,WUHU216DAVISVP2,2013-04-18 00:52:00,
2013-04-17 20:57:00,53.8,31.7,30.29,NW,325,0.0,4.0,43,0.00,,,0.00,WUHU216DAVISVP2,2013-04-18 00:57:00,
2013-04-17 21:00:00,53.5,31.5,30.30,NW,315,0.0,4.0,43,0.00,,,0.00,WUHU216DAVISVP2,2013-04-18 01:00:00,
2013-04-17 21:02:00,53.4,31.3,30.30,NW,325,0.0,4.0,43,0.00,,,0.00,WUHU216DAVISVP2,2013-04-18 01:02:00,
2013-04-17 21:07:00,53.0,32.1,30.30,NW,325,0.0,2.0,45,0.00,,,0.00,WUHU216DAVISVP2,2013-04-18 01:07:00,
2013-04-17 21:12:00,52.8,31.4,30.30,NW,325,1.0,3.0,44,0.00,,,0.00,WUHU216DAVISVP2,2013-04-18 01:12:00,
2013-04-17 21:17:00,52.4,31.0,30.30,NW,325,0.0,3.0,44,0.00,,,0.00,WUHU216DAVISVP2,2013-04-18 01:17:00,
2013-04-17 21:22:00,52.1,31.3,30.30,NW,325,0.0,3.0,45,0.00,,,0.00,WUHU216DAVISVP2,2013-04-18 01:22:00,
2013-04-17 21:27:00,51.7,31.5,30.30,NW,325,0.0,3.0,46,0.00,,,0.00,WUHU216DAVISVP2,2013-04-18 01:27:00,
2013-04-17 21:30:00,51.5,31.4,30.30,NW,315,0.0,3.0,46,0.00,,,0.00,WUHU216DAVISVP2,2013-04-18 01:30:00,
2013-04-17 21:32:00,51.4,31.2,30.30,NW,325,0.0,2.0,46,0.00,,,0.00,WUHU216DAVISVP2,2013-04-18 01:32:00,
2013-04-17 21:37:00,51.2,31.1,30.30,NW,325,0.0,2.0,46,0.00,,,0.00,WUHU216DAVISVP2,2013-04-18 01:37:00,
2013-04-17 21:42:00,50.9,31.4,30.30,NW,325,1.0,2.0,47,0.00,,,0.00,WUHU216DAVISVP2,2013-04-18 01:42:00,
2013-04-17 21:47:00,50.7,31.7,30.30,NW,325,0.0,1.0,48,0.00,,,0.00,WUHU216DAVISVP2,2013-04-18 01:47:00,
2013-04-17 21:52:00,50.5,31.0,30.31,NW,325,0.0,1.0,47,0.00,,,0.00,WUHU216DAVISVP2,2013-04-18 01:52:00,
2013-04-17 21:57:00,50.4,30.8,30.31,NW,325,0.0,1.0,47,0.00,,,0.00,WUHU216DAVISVP2,2013-04-18 01:57:00,
2013-04-17 22:00:00,50.3,31.3,30.31,NW,315,0.0,1.0,48,0.00,,,0.00,WUHU216DAVISVP2,2013-04-18 02:00:00,
2013-04-17 22:02:00,50.1,31.1,30.31,NW,325,0.0,0.0,48,0.00,,,0.00,WUHU216DAVISVP2,2013-04-18 02:02:00,
2013-04-17 22:07:00,49.8,30.3,30.31,NW,325,0.0,0.0,47,0.00,,,0.00,WUHU216DAVISVP2,2013-04-18 02:07:00,
2013-04-17 22:12:00,49.5,31.1,30.31,NW,325,0.0,1.0,49,0.00,,,0.00,WUHU216DAVISVP2,2013-04-18 02:12:00,
2013-04-17 22:17:00,49.3,31.4,30.31,NW,325,0.0,1.0,50,0.00,,,0.00,WUHU216DAVISVP2,2013-04-18 02:17:00,
2013-04-17 22:22:00,49.0,31.1,30.31,NW,325,0.0,1.0,50,0.00,,,0.00,WUHU216DAVISVP2,2013-04-18 02:22:00,
2013-04-17 22:27:00,48.5,30.7,30.31,NW,325,0.0,1.0,50,0.00,,,0.00,WUHU216DAVISVP2,2013-04-18 02:27:00,
2013-04-17 22:30:00,48.4,30.6,30.31,NW,315,0.0,1.0,50,0.00,,,0.00,WUHU216DAVISVP2,2013-04-18 02:30:00,
2013-04-17 22:32:00,48.3,30.0,30.31,NW,325,0.0,0.0,49,0.00,,,0.00,WUHU216DAVISVP2,2013-04-18 02:32:00,
2013-04-17 22:37:00,47.9,30.6,30.31,NW,325,0.0,0.0,51,0.00,,,0.00,WUHU216DAVISVP2,2013-04-18 02:37:00,
2013-04-17 22:42:00,47.5,31.7,30.32,NW,325,0.0,0.0,54,0.00,,,0.00,WUHU216DAVISVP2,2013-04-18 02:42:00,
2013-04-17 22:47:00,47.2,31.9,30.32,NW,325,0.0,0.0,55,0.00,,,0.00,WUHU216DAVISVP2,2013-04-18 02:47:00,
2013-04-17 22:52:00,46.7,31.4,30.32,NW,325,0.0,0.0,55,0.00,,,0.00,WUHU216DAVISVP2,2013-04-18 02:52:00,
2013-04-17 22:57:00,46.4,31.5,30.32,NW,325,0.0,0.0,56,0.00,,,0.00,WUHU216DAVISVP2,2013-04-18 02:57:00,
2013-04-17 23:00:00,46.2,31.4,30.32,North,0,0.0,0.0,56,0.00,,,0.00,WUHU216DAVISVP2,2013-04-18 03:00:00,
2013-04-17 23:02:00,46.1,31.7,30.32,NW,325,0.0,0.0,57,0.00,,,0.00,WUHU216DAVISVP2,2013-04-18 03:02:00,
2013-04-17 23:07:00,45.8,31.0,30.32,NW,325,0.0,0.0,56,0.00,,,0.00,WUHU216DAVISVP2,2013-04-18 03:07:00,
2013-04-17 23:12:00,45.6,31.7,30.31,NW,325,0.0,0.0,58,0.00,,,0.00,WUHU216DAVISVP2,2013-04-18 03:12:00,
2013-04-17 23:17:00,45.1,31.3,30.31,NW,325,0.0,0.0,58,0.00,,,0.00,WUHU216DAVISVP2,2013-04-18 03:17:00,
2013-04-17 23:22:00,44.4,32.3,30.31,NW,325,0.0,0.0,62,0.00,,,0.00,WUHU216DAVISVP2,2013-04-18 03:22:00,
2013-04-17 23:27:00,43.9,31.0,30.31,NW,325,0.0,0.0,60,0.00,,,0.00,WUHU216DAVISVP2,2013-04-18 03:27:00,
2013-04-17 23:30:00,43.8,31.2,30.31,North,0,0.0,0.0,61,0.00,,,0.00,WUHU216DAVISVP2,2013-04-18 03:30:00,
2013-04-17 23:32:00,43.8,31.6,30.32,NW,325,0.0,0.0,62,0.00,,,0.00,WUHU216DAVISVP2,2013-04-18 03:32:00,
2013-04-17 23:37:00,43.6,31.4,30.31,NW,325,0.0,0.0,62,0.00,,,0.00,WUHU216DAVISVP2,2013-04-18 03:37:00,
2013-04-17 23:42:00,43.4,31.3,30.32,NW,325,0.0,0.0,62,0.00,,,0.00,WUHU216DAVISVP2,2013-04-18 03:42:00,
2013-04-17 23:47:00,43.3,32.0,30.32,NW,325,0.0,0.0,64,0.00,,,0.00,WUHU216DAVISVP2,2013-04-18 03:47:00,
2013-04-17 23:52:00,43.2,31.5,30.32,NW,325,0.0,0.0,63,0.00,,,0.00,WUHU216DAVISVP2,2013-04-18 03:52:00,
2013-04-17 23:57:00,43.1,31.4,30.33,NW,325,0.0,0.0,63,0.00,,,0.00,WUHU216DAVISVP2,2013-04-18 03:57:00,